Location: C�mpuri de-Sus
(45.9500°N, 22.5500°E)
Time: 06:03:07
(UTC+00:00)

Cosmos 407 Rocket - Pass Details

Date: 24 October 2021
Orbit: 743 x 787 km, 74.0° (Epoch: 04 December)

Event Time Altitude Azimuth Distance (km) Brightness Sun altitude
Rises 18:12:31 0° 335° (NNW) 3,272 7.3 -29.1°
Reaches altitude 10° 18:14:56 10° 331° (NNW) 2,345 6.5 -29.5°
Enters shadow 18:20:08 58° 255° (WSW) 914 4.0 -30.4°
